Previsão horária em Barretos

Hoje, 24 Outubro, Sábado

Tempo Temperatura Precipitação Vento Pressão Humidade
00:00 +24°C° 0.4 mm 3 m/s 711 mmHg 83%
01:00 +24°C° 0.3 mm 3 m/s 711 mmHg 84%
02:00 +22°C° 0.3 mm 3 m/s 711 mmHg 85%
03:00 +22°C° 0.3 mm 3 m/s 711 mmHg 85%
04:00 +22°C° 0.7 mm 3 m/s 711 mmHg 87%
05:00 +22°C° 0.7 mm 3 m/s 711 mmHg 88%
06:00 +22°C° 0.7 mm 4 m/s 712 mmHg 89%
07:00 +22°C° 1.6 mm 4 m/s 712 mmHg 89%
08:00 +22°C° 1.6 mm 4 m/s 713 mmHg 90%
09:00 +22°C° 1.6 mm 4 m/s 713 mmHg 90%
10:00 +22°C° 2 mm 4 m/s 713 mmHg 90%
11:00 +22°C° 2 mm 4 m/s 713 mmHg 89%
12:00 +22°C° 2 mm 4 m/s 712 mmHg 88%
13:00 +22°C° 0.3 mm 3 m/s 712 mmHg 87%
14:00 +24°C° 0.3 mm 3 m/s 711 mmHg 87%
15:00 +24°C° 0.3 mm 2 m/s 710 mmHg 86%
16:00 +24°C° 1 mm 2 m/s 710 mmHg 87%
17:00 +24°C° 1 mm 2 m/s 710 mmHg 89%
18:00 +23°C° 1 mm 2 m/s 710 mmHg 90%
19:00 +23°C° 0.3 mm 2 m/s 710 mmHg 91%
20:00 +23°C° 0.3 mm 2 m/s 710 mmHg 91%
21:00 +23°C° 0.3 mm 2 m/s 710 mmHg 91%
22:00 +23°C° 0 mm 2 m/s 710 mmHg 92%
23:00 +23°C° 0 mm 2 m/s 710 mmHg 93%

Amanhã, 25 Outubro, Domingo

Tempo Temperatura Precipitação Vento Pressão Humidade
00:00 +21°C° 0 mm 2 m/s 710 mmHg 94%
01:00 +21°C° 0.1 mm 2 m/s 709 mmHg 94%
02:00 +21°C° 0.1 mm 2 m/s 709 mmHg 94%
03:00 +21°C° 0.1 mm 2 m/s 708 mmHg 95%
04:00 +20°C° 0 mm 2 m/s 709 mmHg 95%
05:00 +21°C° 0 mm 1 m/s 709 mmHg 95%
06:00 +21°C° 0 mm 1 m/s 709 mmHg 95%
07:00 +23°C° 0 mm 2 m/s 710 mmHg 89%
08:00 +25°C° 0 mm 2 m/s 710 mmHg 83%
09:00 +26°C° 0 mm 2 m/s 710 mmHg 78%
10:00 +28°C° 0.2 mm 2 m/s 710 mmHg 73%
11:00 +29°C° 0.2 mm 3 m/s 710 mmHg 69%
12:00 +30°C° 0.2 mm 3 m/s 710 mmHg 65%
13:00 +30°C° 0.4 mm 3 m/s 709 mmHg 63%
14:00 +32°C° 0.4 mm 4 m/s 709 mmHg 61%
15:00 +32°C° 0.4 mm 4 m/s 708 mmHg 59%
16:00 +30°C° 0.3 mm 3 m/s 708 mmHg 63%
17:00 +29°C° 0.3 mm 2 m/s 708 mmHg 67%
18:00 +28°C° 0.3 mm 2 m/s 708 mmHg 71%
19:00 +27°C° 0.2 mm 2 m/s 708 mmHg 75%
20:00 +26°C° 0.2 mm 2 m/s 709 mmHg 78%
21:00 +25°C° 0.2 mm 2 m/s 709 mmHg 81%
22:00 +24°C° 0 mm 2 m/s 709 mmHg 83%
23:00 +24°C° 0 mm 2 m/s 709 mmHg 84%

Depois de amanhã, 26 Outubro, Segunda-feira

Tempo Temperatura Precipitação Vento Pressão Humidade
00:00 +23°C° 0 mm 2 m/s 709 mmHg 85%
01:00 +23°C° 0 mm 2 m/s 709 mmHg 86%
02:00 +21°C° 0 mm 2 m/s 708 mmHg 87%
03:00 +21°C° 0 mm 2 m/s 708 mmHg 87%
04:00 +21°C° 0 mm 2 m/s 708 mmHg 88%
05:00 +20°C° 0 mm 2 m/s 709 mmHg 88%
06:00 +20°C° 0 mm 2 m/s 709 mmHg 88%
07:00 +23°C° 0 mm 1 m/s 709 mmHg 81%
08:00 +25°C° 0 mm 1 m/s 710 mmHg 73%
09:00 +25°C° 0 mm 0 m/s 711 mmHg 66%
10:00 +29°C° 0 mm 1 m/s 710 mmHg 59%
11:00 +30°C° 0 mm 1 m/s 710 mmHg 53%
12:00 +32°C° 0 mm 2 m/s 710 mmHg 47%
13:00 +32°C° 0 mm 2 m/s 710 mmHg 46%
14:00 +34°C° 0 mm 2 m/s 709 mmHg 45%
15:00 +34°C° 0 mm 3 m/s 708 mmHg 44%
16:00 +32°C° 0 mm 2 m/s 708 mmHg 48%
17:00 +31°C° 0 mm 2 m/s 708 mmHg 53%
18:00 +30°C° 0 mm 1 m/s 708 mmHg 57%
19:00 +28°C° 0.4 mm 3 m/s 709 mmHg 64%
20:00 +26°C° 0.4 mm 5 m/s 709 mmHg 71%
21:00 +23°C° 0.4 mm 7 m/s 709 mmHg 77%
22:00 +23°C° 0 mm 5 m/s 709 mmHg 77%
23:00 +24°C° 0 mm 3 m/s 709 mmHg 76%

, 27 Outubro, Terça-feira

Tempo Temperatura Precipitação Vento Pressão Humidade
00:00 +24°C° 0 mm 1 m/s 709 mmHg 75%
01:00 +24°C° 0 mm 1 m/s 708 mmHg 77%
02:00 +23°C° 0 mm 1 m/s 708 mmHg 78%
03:00 +23°C° 0 mm 1 m/s 708 mmHg 80%
04:00 +23°C° 0 mm 1 m/s 708 mmHg 82%
05:00 +23°C° 0 mm 1 m/s 708 mmHg 84%
06:00 +23°C° 0 mm 1 m/s 709 mmHg 86%
07:00 +24°C° 0 mm 1 m/s 709 mmHg 80%
08:00 +26°C° 0 mm 2 m/s 709 mmHg 74%
09:00 +27°C° 0 mm 2 m/s 710 mmHg 68%
10:00 +28°C° 0 mm 3 m/s 709 mmHg 65%
11:00 +29°C° 0 mm 3 m/s 709 mmHg 62%
12:00 +30°C° 0 mm 3 m/s 709 mmHg 60%
13:00 +30°C° 0 mm 3 m/s 708 mmHg 58%
14:00 +31°C° 0 mm 3 m/s 708 mmHg 56%
15:00 +31°C° 0 mm 3 m/s 707 mmHg 55%
16:00 +31°C° 0 mm 2 m/s 707 mmHg 58%
17:00 +30°C° 0 mm 2 m/s 707 mmHg 62%
18:00 +29°C° 0 mm 1 m/s 707 mmHg 66%
19:00 +28°C° 0 mm 1 m/s 707 mmHg 68%
20:00 +28°C° 0 mm 1 m/s 707 mmHg 70%
21:00 +25°C° 0 mm 0 m/s 708 mmHg 71%
22:00 +24°C° 0 mm 0 m/s 708 mmHg 72%
23:00 +24°C° 0 mm 0 m/s 708 mmHg 74%

27 Outubro, Terça-feira

Tempo Temperatura Precipitação Vento Pressão Humidade
00:00 +24°C° 0 mm 1 m/s 709 mmHg 75%
01:00 +24°C° 0 mm 1 m/s 708 mmHg 77%
02:00 +23°C° 0 mm 1 m/s 708 mmHg 78%
03:00 +23°C° 0 mm 1 m/s 708 mmHg 80%
04:00 +23°C° 0 mm 1 m/s 708 mmHg 82%
05:00 +23°C° 0 mm 1 m/s 708 mmHg 84%
06:00 +23°C° 0 mm 1 m/s 709 mmHg 86%
07:00 +24°C° 0 mm 1 m/s 709 mmHg 80%
08:00 +26°C° 0 mm 2 m/s 709 mmHg 74%
09:00 +27°C° 0 mm 2 m/s 710 mmHg 68%
10:00 +28°C° 0 mm 3 m/s 709 mmHg 65%
11:00 +29°C° 0 mm 3 m/s 709 mmHg 62%
12:00 +30°C° 0 mm 3 m/s 709 mmHg 60%
13:00 +30°C° 0 mm 3 m/s 708 mmHg 58%
14:00 +31°C° 0 mm 3 m/s 708 mmHg 56%
15:00 +31°C° 0 mm 3 m/s 707 mmHg 55%
16:00 +31°C° 0 mm 2 m/s 707 mmHg 58%
17:00 +30°C° 0 mm 2 m/s 707 mmHg 62%
18:00 +29°C° 0 mm 1 m/s 707 mmHg 66%
19:00 +28°C° 0 mm 1 m/s 707 mmHg 68%
20:00 +28°C° 0 mm 1 m/s 707 mmHg 70%
21:00 +25°C° 0 mm 0 m/s 708 mmHg 71%
22:00 +24°C° 0 mm 0 m/s 708 mmHg 72%
23:00 +24°C° 0 mm 0 m/s 708 mmHg 74%

28 Outubro, Quarta-feira

Tempo Temperatura Precipitação Vento Pressão Humidade
00:00 +24°C° 0 mm 0 m/s 708 mmHg 75%
01:00 +23°C° 0 mm 0 m/s 707 mmHg 76%
02:00 +25°C° 0 mm 1 m/s 707 mmHg 77%
03:00 +25°C° 0 mm 1 m/s 707 mmHg 79%
04:00 +25°C° 0 mm 1 m/s 707 mmHg 81%
05:00 +24°C° 0 mm 1 m/s 708 mmHg 83%
06:00 +24°C° 0 mm 1 m/s 708 mmHg 86%
07:00 +26°C° 0 mm 2 m/s 709 mmHg 78%
08:00 +28°C° 0 mm 2 m/s 709 mmHg 70%
09:00 +30°C° 0 mm 2 m/s 710 mmHg 62%
10:00 +31°C° 0.1 mm 2 m/s 709 mmHg 57%
11:00 +34°C° 0.1 mm 2 m/s 709 mmHg 52%
12:00 +35°C° 0.1 mm 3 m/s 709 mmHg 47%
13:00 +35°C° 0.1 mm 3 m/s 709 mmHg 47%
14:00 +35°C° 0.1 mm 3 m/s 708 mmHg 47%
15:00 +35°C° 0.1 mm 3 m/s 708 mmHg 47%
16:00 +33°C° 1.1 mm 3 m/s 707 mmHg 55%
17:00 +29°C° 1.1 mm 4 m/s 707 mmHg 62%
18:00 +27°C° 1.1 mm 4 m/s 706 mmHg 70%
19:00 +26°C° 1.3 mm 3 m/s 706 mmHg 72%
20:00 +25°C° 1.3 mm 3 m/s 707 mmHg 74%
21:00 +24°C° 1.3 mm 2 m/s 708 mmHg 77%
22:00 +24°C° 4.5 mm 2 m/s 708 mmHg 82%
23:00 +23°C° 4.5 mm 2 m/s 709 mmHg 87%

29 Outubro, Quinta-feira

Tempo Temperatura Precipitação Vento Pressão Humidade
00:00 +23°C° 4.5 mm 2 m/s 709 mmHg 92%
01:00 +23°C° 0.3 mm 2 m/s 708 mmHg 91%
02:00 +22°C° 0.3 mm 3 m/s 708 mmHg 91%
03:00 +22°C° 0.3 mm 3 m/s 707 mmHg 91%
04:00 +22°C° 0.1 mm 3 m/s 707 mmHg 91%
05:00 +22°C° 0.1 mm 3 m/s 708 mmHg 91%
06:00 +22°C° 0.1 mm 3 m/s 708 mmHg 90%
07:00 +22°C° 0.9 mm 3 m/s 709 mmHg 87%
08:00 +24°C° 0.9 mm 3 m/s 709 mmHg 84%
09:00 +25°C° 0.9 mm 3 m/s 710 mmHg 81%
10:00 +25°C° 2.5 mm 2 m/s 710 mmHg 84%
11:00 +24°C° 2.5 mm 2 m/s 710 mmHg 87%
12:00 +24°C° 2.5 mm 2 m/s 709 mmHg 90%
13:00 +25°C° 0.4 mm 3 m/s 709 mmHg 85%
14:00 +27°C° 0.4 mm 4 m/s 709 mmHg 79%
15:00 +28°C° 0.4 mm 4 m/s 708 mmHg 74%
16:00 +28°C° 0.3 mm 4 m/s 708 mmHg 76%
17:00 +27°C° 0.3 mm 3 m/s 708 mmHg 78%
18:00 +27°C° 0.3 mm 3 m/s 708 mmHg 80%
19:00 +26°C° 0 mm 2 m/s 709 mmHg 81%
20:00 +25°C° 0 mm 2 m/s 709 mmHg 82%
21:00 +24°C° 0 mm 2 m/s 709 mmHg 83%
22:00 +24°C° 0 mm 1 m/s 710 mmHg 83%
23:00 +24°C° 0 mm 1 m/s 710 mmHg 83%
Mostrar mais